Location: Cormont
(50.5693°N, 1.7416°E)
Time: 23:27:31
(UTC+00:00)

Cosmos 1758 - Pass Details

Date: 21 October 2019
Orbit: 540 x 563 km, 82.5° (Epoch: 13 November)

Event Time Altitude Azimuth Distance (km) Brightness Sun altitude
Rises 17:16:27 0° 202° (SSW) 2,692 7.3 -5.0°
Reaches altitude 10° 17:18:39 10° 207° (SSW) 1,803 6.5 -5.3°
Maximum altitude 17:22:31 51° 284° (WNW) 693 4.3 -5.9°
Drops below altitude 10° 17:26:25 10° 1° (N) 1,817 5.9 -6.5°
Sets 17:28:38 0° 7° (N) 2,715 6.7 -6.9°
